Flag for Netherlands Weather past 2 weeks in Wageningen, Netherlands

43 °F

Partly cloudy.

Feels Like: 34 °F
Forecast: 45 / 52 °F
Wind: 18 mph from Southwest

Location: Deelen

Current Time: Nov 28, 2015 at 9:33:28 PM

Latest Report: Nov 28, 2015 at 8:55 PM

Visibility: N/A

Pressure: 29.77 "Hg

Humidity: 93%

Dew point: 41 °F

Location of WageningenLocation

Historic Weather in Wageningen — Graph


Wageningen temperature yesterday

Maximum temperature yesterday: 43 °F (at 1:55 PM)
Minimum temperature yesterday: 32 °F (at 12:25 AM)
Average temperature yesterday: 39 °F

Past Weeks' High & Low Weather Summary

High59 °F (Nov 17, 8:25 PM)100% (Nov 14, 6:25 AM)30.21 "Hg (Nov 14, 6:25 AM)
Low27 °F (Nov 23, 8:25 AM)66% (Nov 23, 1:55 PM)29.33 "Hg (Nov 21, 6:25 AM)
Average44 °F89%29.83 "Hg
* Reported Nov 13 8:25 PM — Nov 28 8:25 PM, Wageningen, Weather by CustomWeather, © 2015

Note: Actual official high and low records may vary slightly from our data, if they occured in-between our weather recording intervals... More about our weather records


Wageningen weather history for previous 24 hours

Time TempWeatherWind HumidityBarometerVisibility
8:25 PM
Sat, Nov 28
43 °FMostly cloudy.21 mph87%29.80 "HgN/A
7:55 PM43 °FDrizzle. Overcast.21 mph87%29.80 "HgN/A
7:25 PM43 °FDrizzle. Overcast.18 mph81%29.83 "HgN/A
6:55 PM41 °FLight rain. Mostly cloudy.17 mph87%29.83 "HgN/A
6:25 PM43 °FDrizzle. Mostly cloudy.16 mph76%29.86 "HgN/A
5:55 PM43 °FPassing clouds.16 mph76%29.86 "HgN/A
5:25 PM43 °FPassing clouds.15 mph76%29.86 "HgN/A
4:55 PM43 °FPassing clouds.15 mph76%29.89 "HgN/A
4:25 PM43 °FMostly cloudy.14 mph76%29.89 "HgN/A
3:55 PM43 °FPartly sunny.13 mph76%29.89 "HgN/A
3:25 PM43 °FScattered clouds.14 mph76%29.89 "HgN/A
2:55 PM45 °FQuite cool.13 mph71%29.89 "HgN/A
2:25 PM45 °FPassing clouds.12 mph71%29.89 "HgN/A
1:55 PM45 °FScattered clouds.9 mph71%29.89 "HgN/A
1:25 PM45 °FPartly sunny.10 mph76%29.89 "HgN/A
12:55 PM45 °FPartly sunny.12 mph76%29.89 "HgN/A
12:25 PM45 °FQuite cool.13 mph76%29.89 "HgN/A
11:55 AM45 °FScattered clouds.12 mph76%29.86 "HgN/A
11:25 AM43 °FScattered clouds.12 mph81%29.86 "HgN/A
10:55 AM43 °FPassing clouds.10 mph81%29.86 "HgN/A
10:25 AM41 °FPassing clouds.8 mph87%29.86 "HgN/A
9:55 AM39 °FPassing clouds.8 mph93%29.83 "HgN/A
9:25 AM39 °FPassing clouds.7 mph93%29.83 "HgN/A
8:55 AM37 °FPassing clouds.8 mph100%29.83 "HgN/A
8:25 AM36 °FPassing clouds.8 mph100%29.80 "HgN/A
7:55 AM39 °FPassing clouds.7 mph93%29.80 "HgN/A
7:25 AM41 °FPartly cloudy.9 mph93%29.77 "HgN/A
6:55 AM41 °FDrizzle. Mostly cloudy.12 mph93%29.74 "HgN/A
6:25 AM43 °FLight rain. Partly cloudy.9 mph87%29.74 "HgN/A
5:55 AM43 °FMostly cloudy.12 mph93%29.71 "HgN/A
5:25 AM43 °FPartly cloudy.16 mph93%29.68 "Hg5 mi
4:55 AM43 °FPartly cloudy.17 mph100%29.65 "Hg2 mi
4:25 AM41 °FLight rain. Overcast.10 mph100%29.62 "Hg3 mi
3:55 AM41 °FLight rain. Passing clouds.16 mph93%29.62 "Hg4 mi
3:25 AM41 °FDrizzle. Mostly cloudy.17 mph93%29.62 "Hg3 mi
2:55 AM39 °FLight rain. Overcast.16 mph100%29.62 "Hg2 mi
2:25 AM39 °FRain. Partly cloudy.15 mph100%29.65 "Hg2 mi
1:55 AM39 °FDrizzle. Mostly cloudy.15 mph93%29.65 "Hg3 mi
1:25 AM39 °FDrizzle. Mostly cloudy.16 mph93%29.65 "Hg4 mi
12:55 AM39 °FLight rain. Mostly cloudy.15 mph93%29.68 "Hg2 mi
12:25 AM39 °FDrizzle. Low clouds.14 mph93%29.68 "Hg4 mi
11:55 PM
Fri, Nov 27
39 °FPartly cloudy.17 mph93%29.68 "HgN/A
11:25 PM39 °FDrizzle. Mostly cloudy.16 mph93%29.71 "Hg4 mi
10:55 PM41 °FMostly cloudy.17 mph87%29.71 "HgN/A
10:25 PM43 °FMostly cloudy.16 mph81%29.74 "HgN/A
9:55 PM43 °FOvercast.15 mph81%29.74 "HgN/A
9:25 PM43 °FOvercast.14 mph81%29.77 "HgN/A
Weather by CustomWeather, © 2015

See weather overviewHow to use our weather pages